Ballarat, Victoria

9:53 PM AEDT on February 09, 2016 (GMT +1100)
Bunkers Hill | | Change Station
CLOSE
Current Station
Personal Weather Station
Location: Bunkers Hill, VICTORIA
Elevation: 1388 ft
Nearby Weather Stations

Elev 1388 ft 37.56 °S, 143.76 °E | Updated 13 seconds ago

Clear
Clear
64.2 °F
Feels Like 64.2 °F
N
0.0
Wind Variable Wind from North
Gusts 0.0 mph

Today
High -- | Low -- °F
--% Chance of Precip.
Yesterday
High -- | Low -- °F
Precip. -- in
Pressure 30.04 in
Visibility 6.2 miles
Clouds
Dew Point 44 °F
Humidity 48%
Rainfall 0.00 in
Snow Depth Not available.
6:47 AM 8:30 PM
New Moon, 1% visible
METAR YMAV 091030Z AUTO 17007KT 9999 // NCD 17/14 Q1017
Pressure 30.04 in
Visibility 6.2 miles
Clouds
Dew Point 44 °F
Humidity 48%
Rainfall 0.00 in
Snow Depth Not available.
6:47 AM 8:30 PM
New Moon, 1% visible
METAR YMAV 091030Z AUTO 17007KT 9999 // NCD 17/14 Q1017

10-Day Weather Forecast

Almanac

Astronomy

Feb. 09, 2016 Rise Set
Actual Time
Civil Twilight
Nautical Twilight
Astronomical Twilight
Moon
Length of Visible Light
Length of Day
Tomorrow will be .
, % of the Moon is Illuminated

Today's Extremes

Country Highs Country Lows

Community

WunderPhotos

Upload Photos

1,891,565 photos uploaded!

WunderBlog® & News

Nearby

Air Quality

  Air Quality AQ Index Pollutant
Not available.

Snow Depth

Station Depth Elevation

Earthquake Activity

City Distance Mag. Time & Date
Minimum magnitude displayed is 2.5.

Coastal Water Temperatures

Place Temperature

Stations

Nearby Weather Stations

Station Location Temp. Windchill Dew Point Humidity Wind Precip. Elev Updated Type